CDT,Max TemperatureF,Mean TemperatureF,Min TemperatureF,Max Dew PointF,MeanDew PointF,Min DewpointF,Max Humidity, Mean Humidity, Min Humidity, Max Sea Level PressureIn, Mean Sea Level PressureIn, Min Sea Level PressureIn, Max VisibilityMiles, Mean VisibilityMiles, Min VisibilityMiles, Max Wind SpeedMPH, Mean Wind SpeedMPH, Max Gust SpeedMPH,PrecipitationIn, CloudCover, Events, WindDirDegrees
2014-3-1,5,-2,-8,-3,-10,-22,80,64,44,30.30,30.17,29.97,10,10,5,13,8,20,0.00,1,,323
2014-3-2,9,-2,-13,-12,-20,-27,67,46,31,30.34,30.30,30.23,10,10,10,13,5,20,0.00,0,,306
2014-3-3,16,-2,-21,6,-11,-29,81,61,38,30.37,30.29,30.16,10,8,2,10,2,10,0.00,2,Snow,247
2014-3-4,19,10,-1,6,2,-6,85,73,53,30.27,30.14,30.09,10,8,0,7,1,,0.00,3,Fog-Snow,8
2014-3-5,21,3,-15,2,-7,-21,84,59,30,30.44,30.37,30.27,10,10,10,8,2,,0.00,0,,134
2014-3-6,30,16,1,18,8,-8,85,69,54,30.34,30.09,29.83,10,9,2,20,10,30,0.00,1,Snow,185
2014-3-7,31,24,16,29,21,11,92,83,71,30.10,29.85,29.74,10,6,1,16,8,23,0.00,5,Snow,298
2014-3-8,28,16,4,12,8,1,87,69,46,30.21,30.14,30.07,10,10,3,9,4,,0.00,2,Snow,343
2014-3-9,41,24,6,30,19,1,90,70,55,30.06,29.76,29.59,10,10,10,17,5,23,0.00,2,,218
2014-3-10,56,40,24,36,26,21,94,64,27,29.60,29.53,29.47,10,8,0,17,4,29,0.00,0,Fog,286
2014-3-11,42,37,31,30,26,21,80,66,47,29.88,29.74,29.60,10,10,7,15,7,22,0.00,3,Snow,340
2014-3-12,29,16,2,22,1,-9,79,56,28,30.03,29.99,29.87,10,10,3,16,9,22,0.00,3,Snow,12
2014-3-13,39,20,1,29,13,-5,84,66,53,29.98,29.75,29.49,10,10,10,14,5,20,0.00,4,,204
2014-3-14,37,30,24,34,30,21,92,84,72,29.79,29.50,29.38,10,9,2,18,7,28,0.00,5,Snow,293
2014-3-15,22,14,2,21,8,-4,88,68,45,30.39,30.10,29.79,10,8,2,15,7,21,0.00,4,Snow,359
2014-3-16,23,6,-11,-1,-8,-18,80,53,19,30.44,30.30,30.02,10,10,10,9,2,,0.00,0,,183
2014-3-17,23,18,14,19,11,-2,86,72,45,30.01,29.78,29.67,10,7,0,17,8,23,0.02,7,Snow,165
2014-3-18,36,28,21,30,24,17,92,81,69,29.84,29.79,29.75,10,8,0,14,7,18,0.07,6,Snow,117
2014-3-19,32,30,29,30,27,24,92,87,81,29.84,29.74,29.68,10,5,1,15,6,21,0.00,7,Snow,341
2014-3-20,36,28,19,24,21,16,89,75,48,29.94,29.91,29.84,10,9,5,7,4,,0.00,5,Snow,299
2014-3-21,38,24,11,32,23,9,94,85,58,29.94,29.82,29.70,10,7,0,16,2,28,0.00,4,Snow,150
2014-3-22,31,18,5,30,10,2,92,76,62,30.32,30.15,29.87,10,7,2,21,13,30,0.00,6,Snow,330
2014-3-23,19,6,-6,4,-2,-11,85,68,45,30.34,30.30,30.25,10,10,7,12,2,17,0.00,1,,301
2014-3-24,25,10,-6,13,2,-11,87,66,43,30.25,30.07,29.91,10,10,7,18,4,25,0.00,2,,288
2014-3-25,18,10,2,11,1,-3,82,64,42,30.06,30.01,29.91,10,9,2,17,8,26,0.00,3,Snow,314
2014-3-26,31,12,-6,19,4,-12,83,62,44,30.09,29.98,29.76,10,10,10,16,4,24,0.00,4,,177
2014-3-27,36,34,29,35,30,21,94,87,65,29.74,29.58,29.50,10,5,0,15,9,21,0.25,8,Rain-Snow,161
2014-3-28,34,28,22,27,22,18,92,76,57,30.20,29.94,29.58,10,10,5,20,10,28,0.04,4,,353
2014-3-29,41,29,17,25,20,15,90,68,46,30.24,30.19,30.13,10,10,10,8,2,,0.00,3,,177
2014-3-30,50,40,31,32,27,21,74,62,49,30.14,29.98,29.91,10,10,10,23,9,31,0.00,1,,176
2014-3-31,51,44,37,36,34,30,81,66,49,29.95,29.74,29.48,10,10,10,15,8,24,0.00,5,Rain-Thunderstorm,134